QPF
0.00 0.00 0.00 0.00 0.00 0.00 0.00 0.00 0.00 0.00 0.00 0.00 0.00 0.00 0.00 0.00 0.00 0.00 0.00 0.00 0.00 0.00 0.00 0.00 0.00 0.00 0.00 0.00 0.00 0.00 0.00 0.00 0.00 0.00 0.00 0.00 0.00 0.00 0.00 0.00 0.00 0.01 0.02 0.01
0.00 0.00 0.00 0.00 0.00 0.00 0.00 0.00 0.00 0.00 0.00 0.00 0.00 0.00 0.00 0.00 0.00 0.00 0.00 0.00 0.00 0.00 0.00 0.00 0.00 0.00 0.00 0.00 0.00 0.00 0.00 0.00 0.00 0.00 0.00 0.00 0.00 0.00 0.00 0.00 0.00 0.01 0.01 0.01
0.00 0.00 0.00 0.00 0.00 0.00 0.00 0.00 0.00 0.00 0.00 0.00 0.00 0.00 0.00 0.00 0.00 0.00 0.00 0.00 0.00 0.00 0.00 0.00 0.00 0.00 0.00 0.00 0.00 0.00 0.00 0.00 0.00 0.00 0.00 0.00 0.00 0.00 0.00 0.00 0.00 0.01 0.01 0.01
0.00 0.00 0.00 0.00 0.00 0.00 0.00 0.00 0.00 0.00 0.00 0.00 0.00 0.00 0.00 0.00 0.00 0.00 0.00 0.00 0.00 0.00 0.00 0.00 0.00 0.00 0.00 0.00 0.00 0.00 0.00 0.00 0.00 0.00 0.00 0.00 0.00 0.00 0.00 0.00 0.00 0.00 0.00 0.00
0.00 0.00 0.00 0.00 0.00 0.00 0.00 0.00 0.00 0.00 0.00 0.00 0.00 0.00 0.00 0.00 0.00 0.00 0.00 0.00 0.00 0.00 0.00 0.00 0.00 0.00 0.00 0.00 0.00 0.00 0.00 0.00 0.00 0.00 0.00 0.00 0.00 0.00 0.00 0.00 0.00 0.00 0.00 0.00
0.00 0.00 0.00 0.00 0.00 0.00 0.00 0.00 0.00 0.00 0.00 0.00 0.00 0.00 0.00 0.00 0.00 0.00 0.00 0.00 0.00 0.00 0.00 0.00 0.00 0.00 0.00 0.00 0.00 0.00 0.00 0.00 0.00 0.00 0.00 0.00 0.00 0.00 0.00 0.00 0.00 0.00 0.00 0.00
0.00 0.00 0.00 0.00 0.00 0.00 0.00 0.00 0.00 0.00 0.00 0.00 0.00 0.00 0.00 0.00 0.00 0.00 0.00 0.00 0.00 0.00 0.00 0.00 0.00 0.00 0.00 0.00 0.00 0.00 0.00 0.00 0.00 0.00 0.00 0.00 0.00 0.00 0.00 0.00 0.00 0.00 0.00 0.00
0.00 0.00 0.00 0.00 0.00 0.00 0.00 0.00 0.00 0.00 0.00 0.00 0.00 0.00 0.00 0.00 0.00 0.00 0.00 0.00 0.00 0.00 0.00 0.00 0.00 0.00 0.00 0.00 0.00 0.00 0.00 0.00 0.00 0.00 0.00 0.00 0.00 0.00 0.00 0.00 0.00 0.00 0.00 0.00
0.00 0.00 0.00 0.00 0.00 0.00 0.00 0.00 0.00 0.00 0.00 0.00 0.00 0.00 0.00 0.00 0.00 0.00 0.00 0.00 0.00 0.00 0.00 0.00 0.00 0.00 0.00 0.00 0.00 0.00 0.00 0.00 0.00 0.00 0.00 0.00 0.00 0.00 0.00 0.00 0.00 0.00 0.00 0.00
0.00 0.00 0.00 0.00 0.00 0.00 0.00 0.00 0.00 0.00 0.00 0.00 0.00 0.00 0.00 0.00 0.00 0.00 0.00 0.00 0.00 0.00 0.00 0.00 0.00 0.00 0.00 0.00 0.00 0.00 0.00 0.00 0.00 0.00 0.00 0.00 0.00 0.00 0.00 0.00 0.00 0.00 0.00 0.00
0.00 0.00 0.00 0.00 0.00 0.00 0.00 0.00 0.00 0.00 0.00 0.00 0.00 0.00 0.00 0.00 0.00 0.00 0.00 0.00 0.00 0.00 0.00 0.00 0.00 0.00 0.00 0.00 0.00 0.00 0.00 0.00 0.00 0.00 0.00 0.00 0.00 0.00 0.00 0.00 0.00 0.00 0.00 0.00
0.00 0.00 0.00 0.00 0.00 0.00 0.00 0.00 0.00 0.00 0.00 0.00 0.00 0.00 0.00 0.00 0.00 0.00 0.00 0.00 0.00 0.00 0.00 0.00 0.00 0.00 0.00 0.00 0.00 0.00 0.00 0.00 0.00 0.00 0.00 0.00 0.00 0.00 0.00 0.00 0.00 0.00 0.00 0.00
0.00 0.00 0.00 0.00 0.00 0.00 0.00 0.00 0.00 0.00 0.00 0.00 0.00 0.00 0.00 0.00 0.00 0.00 0.00 0.00 0.00 0.00 0.00 0.00 0.00 0.00 0.00 0.00 0.00 0.00 0.00 0.00 0.00 0.00 0.00 0.00 0.00 0.00 0.00 0.00 0.00 0.00 0.00 0.00
0.00 0.00 0.00 0.00 0.00 0.00 0.00 0.00 0.00 0.00 0.00 0.00 0.00 0.00 0.00 0.00 0.00 0.00 0.00 0.00 0.00 0.00 0.00 0.00 0.00 0.00 0.00 0.00 0.00 0.00 0.00 0.00 0.00 0.00 0.00 0.00 0.00 0.00 0.00 0.00 0.00 0.00 0.00 0.00
0.00 0.00 0.00 0.00 0.00 0.00 0.00 0.00 0.00 0.00 0.00 0.00 0.00 0.00 0.00 0.00 0.00 0.00 0.00 0.00 0.00 0.00 0.00 0.00 0.00 0.00 0.00 0.00 0.00 0.00 0.00 0.00 0.00 0.00 0.00 0.00 0.00 0.00 0.00 0.00 0.00 0.00 0.00 0.00
0.00 0.00 0.00 0.00 0.00 0.00 0.00 0.00 0.00 0.00 0.00 0.00 0.00 0.00 0.00 0.00 0.00 0.00 0.00 0.00 0.00 0.00 0.00 0.00 0.00 0.00 0.00 0.00 0.00 0.00 0.00 0.00 0.00 0.00 0.00 0.00 0.00 0.00 0.00 0.00 0.00 0.00 0.00 0.00
0.00 0.00 0.00 0.00 0.00 0.00 0.00 0.00 0.00 0.00 0.00 0.00 0.00 0.00 0.00 0.00 0.00 0.00 0.00 0.00 0.00 0.00 0.00 0.00 0.00 0.00 0.00 0.00 0.00 0.00 0.00 0.00 0.00 0.00 0.00 0.00 0.00 0.00 0.00 0.00 0.00 0.00 0.00 0.00
0.00 0.00 0.00 0.00 0.00 0.00 0.00 0.00 0.00 0.00 0.00 0.00 0.00 0.00 0.00 0.00 0.00 0.00 0.00 0.00 0.00 0.00 0.00 0.00 0.00 0.00 0.00 0.00 0.00 0.00 0.00 0.00 0.00 0.00 0.00 0.00 0.00 0.00 0.00 0.00 0.00 0.00 0.00 0.00
0.00 0.00 0.00 0.00 0.00 0.00 0.00 0.00 0.00 0.00 0.00 0.00 0.00 0.00 0.00 0.00 0.00 0.00 0.00 0.00 0.00 0.00 0.00 0.00 0.00 0.00 0.00 0.00 0.00 0.00 0.00 0.00 0.00 0.00 0.00 0.00 0.00 0.00 0.00 0.00 0.00 0.00 0.00 0.00
0.00 0.00 0.00 0.00 0.00 0.00 0.00 0.00 0.00 0.00 0.00 0.00 0.00 0.00 0.00 0.00 0.00 0.00 0.00 0.00 0.00 0.00 0.00 0.00 0.00 0.00 0.00 0.00 0.00 0.00 0.00 0.00 0.00 0.00 0.00 0.00 0.00 0.00 0.00 0.00 0.00 0.00 0.00 0.00
0.00 0.00 0.00 0.00 0.00 0.00 0.00 0.00 0.00 0.00 0.00 0.00 0.00 0.00 0.00 0.00 0.00 0.00 0.00 0.00 0.00 0.00 0.00 0.00 0.00 0.00 0.00 0.00 0.00 0.00 0.00 0.00 0.00 0.00 0.00 0.00 0.00 0.00 0.00 0.00 0.00 0.00 0.00 0.00
0.00 0.00 0.00 0.00 0.00 0.00 0.00 0.00 0.00 0.00 0.00 0.00 0.00 0.00 0.00 0.00 0.00 0.00 0.00 0.00 0.00 0.00 0.00 0.00 0.00 0.00 0.00 0.00 0.00 0.00 0.00 0.00 0.00 0.00 0.00 0.00 0.00 0.00 0.00 0.00 0.00 0.00 0.00 0.00
0.00 0.00 0.00 0.00 0.00 0.00 0.00 0.00 0.00 0.00 0.00 0.00 0.00 0.00 0.00 0.00 0.00 0.00 0.00 0.00 0.00 0.00 0.00 0.00 0.00 0.00 0.00 0.00 0.00 0.00 0.00 0.00 0.00 0.00 0.00 0.00 0.00 0.00 0.00 0.00 0.00 0.00 0.00 0.00
0.00 0.00 0.00 0.00 0.00 0.00 0.00 0.00 0.00 0.00 0.00 0.00 0.00 0.00 0.00 0.00 0.00 0.00 0.00 0.00 0.00 0.00 0.00 0.00 0.00 0.00 0.00 0.00 0.00 0.00 0.00 0.00 0.00 0.00 0.00 0.00 0.00 0.00 0.00 0.00 0.00 0.00 0.00 0.00
0.00 0.00 0.00 0.00 0.00 0.00 0.00 0.00 0.00 0.00 0.00 0.00 0.00 0.00 0.00 0.00 0.00 0.00 0.00 0.00 0.00 0.00 0.00 0.00 0.00 0.00 0.00 0.00 0.00 0.00 0.00 0.00 0.00 0.00 0.00 0.00 0.00 0.00 0.00 0.00 0.00 0.00 0.00 0.00
0.00 0.00 0.00 0.00 0.00 0.00 0.00 0.00 0.00 0.00 0.00 0.00 0.00 0.00 0.00 0.00 0.00 0.00 0.00 0.00 0.00 0.00 0.00 0.00 0.00 0.00 0.00 0.00 0.00 0.00 0.00 0.00 0.00 0.00 0.00 0.00 0.00 0.00 0.00 0.00 0.00 0.00 0.00 0.00
0.00 0.00 0.00 0.00 0.00 0.00 0.00 0.00 0.00 0.00 0.00 0.00 0.00 0.00 0.00 0.00 0.00 0.00 0.00 0.00 0.00 0.00 0.00 0.00 0.00 0.00 0.00 0.00 0.00 0.00 0.00 0.00 0.00 0.00 0.01 0.00 0.00 0.00 0.00 0.00 0.00 0.00 0.00 0.00
MSLP
1020.75 1021.28 1021.82 1022.34 1022.78 1023.08 1023.18 1023.06 1022.72 1022.18 1021.49 1020.73 1019.96 1019.25 1018.65 1018.19 1017.88 1017.70 1017.62 1017.60 1017.60 1017.61 1017.60 1017.58 1017.55 1017.53 1017.52 1017.53 1017.56 1017.59 1017.60 1017.57 1017.48 1017.32 1017.08 1016.77 1016.41 1016.00 1015.57 1015.11 1014.65 1014.17 1013.69 1013.21
1020.85 1021.23 1021.58 1021.87 1022.06 1022.12 1022.03 1021.78 1021.38 1020.86 1020.27 1019.63 1019.02 1018.47 1018.01 1017.66 1017.41 1017.24 1017.14 1017.08 1017.05 1017.03 1017.03 1017.05 1017.09 1017.16 1017.26 1017.37 1017.49 1017.59 1017.65 1017.65 1017.57 1017.41 1017.17 1016.86 1016.49 1016.10 1015.68 1015.24 1014.80 1014.34 1013.88 1013.41
1020.99 1021.18 1021.31 1021.36 1021.30 1021.14 1020.87 1020.50 1020.06 1019.57 1019.05 1018.56 1018.11 1017.72 1017.40 1017.14 1016.95 1016.81 1016.70 1016.62 1016.57 1016.54 1016.55 1016.59 1016.69 1016.83 1017.01 1017.20 1017.39 1017.54 1017.64 1017.66 1017.59 1017.43 1017.20 1016.90 1016.56 1016.20 1015.81 1015.42 1015.01 1014.59 1014.15 1013.69
1021.15 1021.15 1021.05 1020.86 1020.57 1020.21 1019.78 1019.31 1018.83 1018.37 1017.94 1017.57 1017.26 1017.01 1016.82 1016.67 1016.54 1016.44 1016.34 1016.25 1016.19 1016.16 1016.17 1016.24 1016.37 1016.56 1016.79 1017.03 1017.25 1017.44 1017.55 1017.58 1017.52 1017.37 1017.16 1016.90 1016.60 1016.29 1015.96 1015.63 1015.28 1014.91 1014.51 1014.08
1021.28 1021.10 1020.80 1020.40 1019.92 1019.39 1018.83 1018.29 1017.79 1017.35 1016.99 1016.72 1016.52 1016.39 1016.30 1016.24 1016.17 1016.11 1016.03 1015.96 1015.90 1015.88 1015.91 1016.00 1016.15 1016.36 1016.61 1016.86 1017.09 1017.28 1017.39 1017.41 1017.36 1017.23 1017.05 1016.83 1016.60 1016.36 1016.11 1015.86 1015.58 1015.28 1014.93 1014.53
1021.33 1020.99 1020.53 1019.98 1019.36 1018.72 1018.08 1017.49 1016.97 1016.55 1016.24 1016.03 1015.91 1015.85 1015.84 1015.83 1015.82 1015.80 1015.75 1015.71 1015.67 1015.67 1015.72 1015.82 1015.99 1016.20 1016.45 1016.69 1016.90 1017.07 1017.16 1017.18 1017.13 1017.02 1016.87 1016.71 1016.54 1016.38 1016.22 1016.06 1015.87 1015.63 1015.35 1014.99
1021.23 1020.79 1020.23 1019.60 1018.91 1018.21 1017.53 1016.92 1016.40 1015.99 1015.69 1015.51 1015.42 1015.40 1015.42 1015.44 1015.47 1015.47 1015.46 1015.45 1015.45 1015.47 1015.55 1015.67 1015.84 1016.05 1016.28 1016.49 1016.68 1016.81 1016.88 1016.89 1016.83 1016.74 1016.64 1016.53 1016.43 1016.35 1016.27 1016.19 1016.08 1015.92 1015.69 1015.39
1020.94 1020.47 1019.89 1019.25 1018.56 1017.86 1017.20 1016.59 1016.08 1015.67 1015.37 1015.18 1015.08 1015.05 1015.05 1015.07 1015.10 1015.12 1015.13 1015.15 1015.18 1015.24 1015.34 1015.48 1015.65 1015.86 1016.06 1016.25 1016.41 1016.51 1016.55 1016.55 1016.50 1016.43 1016.36 1016.29 1016.25 1016.24 1016.23 1016.21 1016.17 1016.07 1015.90 1015.65
1020.49 1020.05 1019.52 1018.94 1018.32 1017.68 1017.07 1016.50 1016.01 1015.59 1015.27 1015.04 1014.89 1014.80 1014.75 1014.74 1014.73 1014.74 1014.76 1014.79 1014.85 1014.93 1015.05 1015.20 1015.38 1015.57 1015.76 1015.93 1016.05 1016.14 1016.17 1016.16 1016.12 1016.08 1016.03 1016.01 1016.01 1016.04 1016.08 1016.10 1016.10 1016.05 1015.93 1015.73
1019.93 1019.58 1019.16 1018.70 1018.19 1017.66 1017.14 1016.63 1016.16 1015.74 1015.38 1015.09 1014.86 1014.68 1014.56 1014.46 1014.41 1014.37 1014.37 1014.39 1014.45 1014.54 1014.66 1014.82 1014.99 1015.17 1015.35 1015.50 1015.61 1015.68 1015.72 1015.72 1015.70 1015.68 1015.67 1015.68 1015.71 1015.76 1015.81 1015.86 1015.88 1015.85 1015.76 1015.60
1019.36 1019.14 1018.87 1018.55 1018.19 1017.80 1017.37 1016.94 1016.50 1016.08 1015.68 1015.32 1015.00 1014.73 1014.49 1014.31 1014.16 1014.06 1014.01 1013.99 1014.02 1014.09 1014.20 1014.33 1014.49 1014.65 1014.81 1014.94 1015.05 1015.12 1015.17 1015.19 1015.21 1015.22 1015.24 1015.28 1015.33 1015.39 1015.45 1015.49 1015.51 1015.48 1015.40 1015.27
1018.89 1018.81 1018.69 1018.53 1018.32 1018.06 1017.75 1017.39 1017.00 1016.58 1016.15 1015.72 1015.32 1014.94 1014.61 1014.32 1014.07 1013.89 1013.75 1013.66 1013.63 1013.65 1013.70 1013.79 1013.90 1014.03 1014.15 1014.26 1014.36 1014.45 1014.52 1014.57 1014.62 1014.67 1014.73 1014.79 1014.85 1014.92 1014.97 1015.01 1015.01 1014.98 1014.91 1014.80
1018.60 1018.64 1018.66 1018.64 1018.57 1018.42 1018.21 1017.93 1017.58 1017.18 1016.73 1016.27 1015.80 1015.34 1014.91 1014.52 1014.18 1013.89 1013.66 1013.48 1013.36 1013.29 1013.25 1013.26 1013.29 1013.35 1013.42 1013.50 1013.58 1013.66 1013.75 1013.84 1013.92 1014.01 1014.10 1014.19 1014.28 1014.35 1014.41 1014.43 1014.43 1014.39 1014.33 1014.23
1018.52 1018.65 1018.77 1018.85 1018.88 1018.84 1018.71 1018.49 1018.20 1017.82 1017.38 1016.90 1016.40 1015.90 1015.40 1014.94 1014.51 1014.13 1013.79 1013.51 1013.27 1013.07 1012.92 1012.81 1012.73 1012.69 1012.68 1012.69 1012.73 1012.80 1012.88 1012.99 1013.10 1013.23 1013.35 1013.48 1013.59 1013.67 1013.74 1013.77 1013.77 1013.75 1013.69 1013.63
1018.60 1018.80 1018.98 1019.12 1019.22 1019.24 1019.18 1019.03 1018.78 1018.45 1018.05 1017.59 1017.09 1016.57 1016.06 1015.55 1015.06 1014.59 1014.16 1013.76 1013.39 1013.06 1012.76 1012.51 1012.29 1012.12 1011.99 1011.91 1011.88 1011.90 1011.96 1012.05 1012.17 1012.32 1012.47 1012.62 1012.76 1012.88 1012.97 1013.02 1013.05 1013.05 1013.03 1013.00
1018.80 1019.01 1019.22 1019.40 1019.53 1019.59 1019.58 1019.48 1019.29 1019.02 1018.68 1018.27 1017.81 1017.33 1016.82 1016.30 1015.78 1015.26 1014.74 1014.24 1013.74 1013.27 1012.82 1012.40 1012.02 1011.70 1011.43 1011.23 1011.09 1011.03 1011.02 1011.08 1011.18 1011.32 1011.48 1011.65 1011.81 1011.96 1012.08 1012.17 1012.25 1012.29 1012.32 1012.34
1019.01 1019.23 1019.44 1019.63 1019.77 1019.86 1019.88 1019.83 1019.70 1019.50 1019.23 1018.90 1018.52 1018.09 1017.63 1017.14 1016.61 1016.06 1015.49 1014.90 1014.30 1013.69 1013.09 1012.51 1011.97 1011.48 1011.05 1010.71 1010.44 1010.26 1010.17 1010.15 1010.19 1010.29 1010.42 1010.58 1010.75 1010.92 1011.07 1011.21 1011.33 1011.44 1011.53 1011.61
1019.17 1019.39 1019.60 1019.79 1019.93 1020.04 1020.08 1020.07 1020.01 1019.88 1019.69 1019.45 1019.16 1018.82 1018.42 1017.98 1017.48 1016.93 1016.33 1015.68 1014.99 1014.28 1013.55 1012.83 1012.14 1011.49 1010.91 1010.41 1010.00 1009.68 1009.46 1009.33 1009.28 1009.29 1009.37 1009.48 1009.63 1009.79 1009.96 1010.13 1010.29 1010.45 1010.61 1010.76
1019.25 1019.48 1019.69 1019.87 1020.02 1020.13 1020.20 1020.23 1020.22 1020.16 1020.05 1019.90 1019.70 1019.45 1019.13 1018.74 1018.29 1017.76 1017.16 1016.48 1015.74 1014.96 1014.14 1013.31 1012.50 1011.73 1011.01 1010.36 1009.81 1009.34 1008.98 1008.71 1008.53 1008.43 1008.40 1008.43 1008.51 1008.63 1008.77 1008.94 1009.13 1009.33 1009.53 1009.73
1019.28 1019.52 1019.74 1019.92 1020.07 1020.19 1020.28 1020.33 1020.36 1020.36 1020.32 1020.24 1020.12 1019.93 1019.69 1019.37 1018.96 1018.47 1017.88 1017.21 1016.45 1015.64 1014.78 1013.89 1013.00 1012.14 1011.32 1010.56 1009.87 1009.27 1008.76 1008.34 1008.01 1007.77 1007.60 1007.51 1007.48 1007.51 1007.59 1007.71 1007.88 1008.07 1008.29 1008.53
1019.29 1019.55 1019.78 1019.97 1020.12 1020.24 1020.33 1020.40 1020.45 1020.48 1020.48 1020.45 1020.38 1020.26 1020.07 1019.80 1019.44 1018.99 1018.43 1017.79 1017.05 1016.24 1015.38 1014.48 1013.57 1012.66 1011.79 1010.95 1010.17 1009.46 1008.82 1008.26 1007.78 1007.37 1007.04 1006.79 1006.62 1006.52 1006.48 1006.52 1006.61 1006.76 1006.95 1007.18
1019.33 1019.61 1019.84 1020.03 1020.17 1020.29 1020.38 1020.44 1020.50 1020.53 1020.55 1020.55 1020.50 1020.41 1020.25 1020.01 1019.69 1019.28 1018.76 1018.16 1017.46 1016.69 1015.87 1015.00 1014.11 1013.22 1012.33 1011.47 1010.65 1009.86 1009.13 1008.45 1007.82 1007.26 1006.77 1006.35 1006.00 1005.74 1005.56 1005.45 1005.43 1005.49 1005.60 1005.77
1019.42 1019.70 1019.93 1020.10 1020.23 1020.33 1020.40 1020.45 1020.49 1020.51 1020.52 1020.51 1020.47 1020.38 1020.23 1020.01 1019.71 1019.33 1018.85 1018.29 1017.66 1016.95 1016.19 1015.39 1014.56 1013.72 1012.88 1012.04 1011.21 1010.40 1009.61 1008.85 1008.12 1007.42 1006.78 1006.19 1005.68 1005.24 1004.88 1004.61 1004.44 1004.35 1004.35 1004.42
1019.55 1019.81 1020.01 1020.16 1020.26 1020.33 1020.37 1020.39 1020.40 1020.40 1020.38 1020.35 1020.29 1020.19 1020.03 1019.81 1019.53 1019.16 1018.72 1018.21 1017.63 1017.00 1016.32 1015.60 1014.86 1014.10 1013.33 1012.55 1011.76 1010.97 1010.17 1009.37 1008.58 1007.79 1007.03 1006.31 1005.64 1005.03 1004.50 1004.06 1003.71 1003.47 1003.32 1003.26
1019.65 1019.88 1020.04 1020.15 1020.21 1020.24 1020.25 1020.23 1020.21 1020.18 1020.14 1020.08 1019.99 1019.87 1019.70 1019.47 1019.18 1018.83 1018.42 1017.94 1017.42 1016.85 1016.25 1015.62 1014.97 1014.31 1013.63 1012.93 1012.22 1011.48 1010.71 1009.92 1009.11 1008.29 1007.45 1006.64 1005.85 1005.10 1004.42 1003.82 1003.31 1002.90 1002.59 1002.38
1019.65 1019.83 1019.94 1020.01 1020.03 1020.03 1020.00 1019.96 1019.91 1019.86 1019.79 1019.71 1019.60 1019.46 1019.27 1019.03 1018.74 1018.39 1017.99 1017.54 1017.05 1016.54 1016.00 1015.45 1014.88 1014.31 1013.73 1013.12 1012.50 1011.84 1011.13 1010.39 1009.61 1008.79 1007.94 1007.08 1006.22 1005.38 1004.59 1003.87 1003.22 1002.66 1002.21 1001.85
1019.49 1019.61 1019.68 1019.70 1019.69 1019.66 1019.62 1019.57 1019.51 1019.45 1019.37 1019.28 1019.16 1019.01 1018.81 1018.56 1018.26 1017.91 1017.51 1017.07 1016.61 1016.12 1015.62 1015.12 1014.62 1014.12 1013.62 1013.10 1012.56 1011.98 1011.36 1010.69 1009.97 1009.19 1008.37 1007.51 1006.64 1005.77 1004.92 1004.12 1003.38 1002.71 1002.14 1001.67
Thickness
5706 5709 5704 5703 5700 5688 5683 5678 5671 5678 5680 5692 5698 5697 5697 5694 5690 5686 5684 5681 5678 5674 5671 5667 5664 5660 5657 5653 5649 5646 5641 5637 5634 5631 5628 5626 5623 5621 5619 5618 5617 5616 5616 5617
5708 5710 5709 5706 5707 5698 5692 5691 5686 5686 5688 5706 5707 5704 5701 5698 5695 5690 5688 5686 5683 5681 5677 5673 5669 5664 5660 5656 5652 5648 5644 5640 5636 5633 5630 5626 5623 5621 5619 5617 5615 5614 5613 5613
5696 5703 5708 5702 5712 5706 5704 5703 5699 5694 5703 5713 5712 5708 5707 5704 5700 5696 5693 5691 5688 5685 5681 5677 5673 5669 5664 5660 5655 5651 5646 5643 5639 5635 5631 5627 5625 5621 5618 5616 5614 5612 5610 5610
5689 5701 5698 5711 5728 5722 5714 5714 5711 5712 5715 5716 5716 5716 5714 5711 5706 5702 5699 5696 5693 5689 5685 5682 5678 5673 5668 5663 5658 5653 5649 5645 5641 5637 5634 5630 5626 5622 5619 5616 5613 5611 5609 5607
5682 5688 5695 5717 5729 5725 5720 5719 5726 5719 5721 5721 5720 5717 5715 5719 5714 5710 5706 5702 5698 5694 5690 5686 5681 5676 5671 5665 5661 5656 5652 5648 5644 5640 5636 5632 5628 5624 5621 5617 5614 5611 5609 5607
5683 5693 5694 5715 5734 5736 5727 5716 5733 5728 5726 5721 5716 5704 5710 5724 5721 5716 5711 5707 5702 5698 5693 5688 5684 5678 5672 5667 5663 5659 5656 5652 5648 5644 5640 5635 5631 5627 5623 5619 5616 5614 5611 5608
5683 5688 5695 5722 5734 5733 5710 5712 5736 5735 5731 5720 5715 5718 5723 5727 5724 5720 5715 5710 5706 5700 5695 5691 5687 5680 5675 5670 5666 5664 5660 5655 5651 5647 5643 5639 5635 5631 5627 5623 5619 5616 5613 5610
5680 5687 5700 5732 5730 5721 5722 5734 5737 5737 5734 5726 5725 5727 5726 5726 5723 5720 5715 5712 5707 5701 5697 5694 5688 5682 5677 5673 5672 5667 5663 5658 5654 5651 5647 5644 5639 5635 5630 5626 5622 5619 5616 5614
5699 5706 5721 5725 5726 5729 5730 5731 5735 5735 5736 5731 5728 5726 5726 5725 5722 5719 5716 5712 5708 5703 5698 5695 5690 5686 5681 5679 5675 5670 5665 5661 5658 5654 5650 5646 5642 5638 5634 5630 5626 5622 5619 5616
5703 5715 5719 5720 5721 5723 5726 5729 5732 5733 5734 5732 5728 5728 5725 5722 5720 5718 5715 5712 5708 5703 5699 5696 5693 5689 5686 5684 5679 5673 5668 5664 5660 5657 5653 5649 5645 5642 5637 5634 5630 5627 5623 5620
5706 5712 5715 5719 5715 5716 5722 5726 5728 5729 5730 5729 5727 5724 5723 5720 5719 5717 5715 5712 5707 5703 5700 5699 5696 5692 5690 5686 5681 5675 5671 5668 5664 5660 5656 5653 5649 5645 5643 5639 5635 5632 5629 5625
5704 5704 5701 5704 5708 5710 5714 5717 5720 5721 5722 5722 5721 5720 5720 5717 5717 5715 5712 5710 5706 5703 5701 5700 5698 5695 5693 5689 5683 5678 5674 5670 5667 5663 5659 5656 5652 5650 5648 5645 5643 5640 5637 5632
5696 5699 5698 5699 5700 5702 5704 5708 5710 5711 5711 5712 5713 5714 5714 5713 5713 5711 5709 5707 5705 5704 5703 5701 5698 5696 5695 5691 5686 5681 5677 5675 5670 5666 5663 5659 5655 5652 5650 5649 5648 5645 5643 5640
5693 5694 5692 5690 5690 5692 5695 5698 5700 5701 5701 5702 5703 5704 5705 5705 5706 5705 5705 5705 5705 5703 5702 5700 5697 5696 5696 5693 5688 5684 5681 5678 5674 5670 5666 5662 5659 5656 5653 5650 5648 5647 5647 5645
5684 5684 5682 5681 5681 5683 5685 5687 5689 5688 5688 5690 5692 5693 5694 5695 5695 5697 5699 5700 5700 5699 5698 5696 5694 5695 5696 5692 5689 5686 5682 5679 5676 5673 5669 5665 5662 5658 5655 5652 5650 5649 5647 5646
5673 5672 5670 5670 5669 5670 5671 5672 5672 5671 5673 5674 5677 5678 5680 5682 5684 5686 5688 5689 5690 5690 5691 5690 5690 5693 5693 5690 5688 5686 5683 5682 5679 5674 5670 5666 5663 5660 5657 5655 5652 5650 5649 5648
5663 5659 5657 5655 5655 5655 5655 5655 5655 5655 5657 5659 5661 5663 5666 5668 5671 5672 5674 5676 5678 5679 5680 5679 5681 5685 5686 5686 5684 5684 5682 5681 5679 5675 5670 5668 5665 5662 5660 5658 5656 5654 5654 5653
5651 5648 5645 5643 5641 5640 5640 5640 5641 5641 5641 5643 5645 5647 5649 5650 5651 5653 5657 5661 5663 5664 5664 5665 5668 5673 5676 5678 5678 5678 5678 5678 5676 5674 5671 5668 5666 5664 5661 5659 5658 5656 5656 5654
5637 5635 5632 5631 5629 5626 5625 5625 5625 5625 5626 5627 5629 5629 5629 5630 5632 5635 5639 5642 5644 5646 5648 5650 5655 5659 5663 5666 5668 5670 5671 5671 5671 5671 5670 5668 5666 5663 5661 5659 5658 5657 5656 5654
5623 5621 5619 5617 5616 5614 5612 5610 5611 5611 5611 5612 5612 5612 5612 5613 5615 5618 5620 5620 5620 5622 5627 5634 5639 5643 5647 5652 5656 5658 5661 5663 5664 5665 5664 5663 5662 5661 5660 5659 5657 5656 5655 5654
5608 5606 5605 5603 5601 5599 5598 5596 5596 5596 5596 5597 5596 5595 5595 5595 5597 5599 5601 5603 5604 5606 5611 5616 5620 5624 5629 5635 5640 5644 5647 5651 5653 5655 5656 5657 5657 5657 5657 5656 5656 5655 5654 5653
5593 5591 5590 5588 5587 5585 5583 5582 5582 5582 5582 5582 5581 5581 5580 5580 5580 5581 5582 5583 5586 5591 5593 5596 5599 5605 5610 5616 5621 5625 5630 5634 5638 5641 5644 5646 5648 5649 5650 5651 5651 5652 5652 5652
5578 5577 5576 5575 5573 5571 5570 5569 5568 5568 5567 5567 5566 5565 5564 5563 5563 5564 5565 5567 5569 5573 5575 5576 5580 5586 5591 5594 5598 5603 5608 5613 5618 5622 5627 5631 5635 5638 5641 5643 5644 5646 5647 5647
5566 5565 5564 5563 5560 5559 5557 5557 5555 5554 5554 5553 5552 5551 5550 5548 5548 5548 5548 5550 5552 5554 5555 5557 5561 5564 5567 5569 5573 5577 5582 5587 5593 5599 5605 5611 5617 5622 5626 5630 5633 5636 5638 5640
5555 5553 5552 5550 5548 5547 5546 5544 5542 5542 5540 5539 5538 5537 5536 5533 5531 5531 5531 5531 5532 5534 5534 5535 5538 5540 5541 5543 5546 5549 5553 5558 5564 5571 5578 5586 5593 5600 5607 5613 5618 5623 5626 5629
5543 5541 5540 5539 5537 5536 5534 5531 5529 5528 5526 5524 5523 5523 5521 5519 5516 5514 5513 5513 5512 5513 5512 5513 5513 5515 5515 5517 5519 5522 5525 5530 5535 5541 5548 5557 5565 5574 5583 5591 5598 5605 5611 5616
5531 5529 5527 5526 5526 5524 5522 5519 5517 5516 5514 5511 5509 5508 5506 5503 5501 5498 5496 5494 5493 5492 5491 5490 5490 5490 5490 5491 5492 5494 5497 5501 5506 5511 5518 5527 5535 5545 5555 5565 5575 5584 5592 5598